Praetorian SDA-615

operational
NORAD ID: 65578 Int'l Des: 2025-203 Owner: SDA Country: US
NOTLE

About Praetorian SDA-615

Description loading...

Live Position

Loading 3D Globe...

Upcoming Passes

Altitude History

Altitude vs Time

uPlot chart will show altitude changes over time

Two-Line Element Set

1 65578U 25203P 25312.13944756 .00000125 00000-0 99724-4 0 9998
2 65578 81.3036 215.4813 0010802 72.8227 287.4112 13.85281826 8116
Epoch: Nov 8, 2025 • Age: 9 hours

Current Status

Altitude 951.2 km
Velocity 7.39 km/s
Sub-Earth Point 81.27°N, 78.02°E
Launch Date Sep 10, 2025
Age 0.1 years
Type other

Technical Details

Classification Payload
Mass 300.00 kg
Dry Mass 300.00 kg
Total Mass 300.00 kg
Length 1.00 m
Diameter 0.60 m
Span 2.00 m
Shape Box + panels
Manufacturer YORKSS
Bus Type S-Class
Phase Status In Orbit
Owner/State SDA/US

Large Constellations

Loading constellations...